Weather History for McCall, ID

Change the Weather History Date:

Tuesday, July 22, 2014

  Actual Average Record
Temperature  
Mean Temperature 68 °F 62 °F  
Max Temperature 81 °F 80 °F 97 °F (1936)
Min Temperature 54 °F 44 °F 30 °F (1954)
Degree Days  
Heating Degree Days 0 4  
Month to date heating degree days 2 119  
Since 1 June heating degree days 316 486  
Since 1 July heating degree days 2 119  
Cooling Degree Days 3 1  
Month to date cooling degree days 99 7  
Year to date cooling degree days 99 8  
Since 1 June cooling degree days 99 8  
Growing Degree Days 16 (Base 50)    
Moisture  
Dew Point 48 °F    
Average Humidity 57    
Maximum Humidity 86    
Minimum Humidity 28    
Precipitation  
Precipitation T in 0.02 in 0.29 in (1987)
Month to date precipitation 0.01 0.56  
Year to date precipitation 15.20 12.20  
Sea Level Pressure  
Sea Level Pressure 30.07 in    
Wind  
Wind Speed 6 mph (SSE)    
Max Wind Speed 18 mph    
Max Gust Speed 25 mph    
Visibility 10 miles    
Events      
T = Trace of Precipitation, MM = Missing Value Source: NWS Daily Summary

Daily Weather History Graph

Daily Weather History Graph

Search for Another Location

Airport:

Trip Planner

Search our weather history database for the weather conditions in past years. The results will help you decide how hot, cold, wet, or windy it might be!

Date:

Astronomy

Jul. 22, 2014 Rise Set
Actual Time 6:19 AM MDT 9:21 PM MDT
Civil Twilight 5:44 AM MDT 9:56 PM MDT
Nautical Twilight 4:59 AM MDT 10:41 PM MDT
Astronomical Twilight 4:05 AM MDT 11:34 PM MDT
Moon 2:57 AM MDT (7/22) 6:02 PM MDT (7/22)
Length of Visible Light 16h 12m
Length of Day
15h 02m
Waning Crescent, 16% of the Moon is Illuminated
Jul 22
Waning Crescent
Jul 26
New
Aug 3
First Quarter
Aug 10
Full
Aug 17
Last Quarter

Hourly Weather History & Observations

Time (MDT) Temp. Dew Point Humidity Pressure Visibility Wind Dir Wind Speed Gust Speed Precip Events Conditions
12:51 AM 59.0 °F 48.9 °F 69% 30.06 in 10.0 mi Calm Calm - N/A   Partly Cloudy
1:51 AM 59.0 °F 48.9 °F 69% 30.06 in 10.0 mi Calm Calm - N/A   Overcast
2:51 AM 60.1 °F 52.0 °F 75% 30.06 in 10.0 mi Calm Calm - N/A   Overcast
3:51 AM 57.0 °F 51.1 °F 81% 30.05 in 10.0 mi Calm Calm - N/A   Mostly Cloudy
4:51 AM 59.0 °F 53.1 °F 81% 30.06 in 10.0 mi NNE 3.5 mph - 0.00 in   Overcast
5:51 AM 57.0 °F 53.1 °F 87% 30.06 in 10.0 mi Calm Calm - 0.00 in   Mostly Cloudy
6:51 AM 55.0 °F 51.1 °F 86% 30.08 in 10.0 mi Calm Calm - N/A   Clear
7:51 AM 61.0 °F 53.1 °F 75% 30.08 in 10.0 mi Calm Calm - N/A   Partly Cloudy
8:51 AM 63.0 °F 52.0 °F 67% 30.11 in 10.0 mi South 5.8 mph - N/A   Overcast
9:51 AM 68.0 °F 50.0 °F 52% 30.11 in 10.0 mi South 9.2 mph - N/A   Clear
10:51 AM 71.1 °F 48.9 °F 45% 30.11 in 10.0 mi South 12.7 mph - N/A   Clear
11:51 AM 73.9 °F 46.9 °F 38% 30.12 in 10.0 mi South 17.3 mph 25.3 mph N/A   Mostly Cloudy
12:51 PM 75.9 °F 46.0 °F 35% 30.11 in 10.0 mi South 10.4 mph 20.7 mph N/A   Partly Cloudy
1:51 PM 77.0 °F 44.1 °F 31% 30.11 in 10.0 mi South 9.2 mph - N/A   Mostly Cloudy
2:51 PM 78.1 °F 43.0 °F 29% 30.10 in 10.0 mi South 10.4 mph 18.4 mph N/A   Mostly Cloudy
3:51 PM 78.1 °F 42.1 °F 28% 30.10 in 10.0 mi SE 8.1 mph - N/A   Clear
4:51 PM 78.1 °F 42.1 °F 28% 30.09 in 10.0 mi South 11.5 mph - N/A   Clear
5:51 PM 78.1 °F 42.1 °F 28% 30.07 in 10.0 mi SE 6.9 mph - N/A   Clear
6:51 PM 77.0 °F 41.0 °F 28% 30.05 in 10.0 mi South 8.1 mph - N/A   Clear
7:51 PM 75.9 °F 44.1 °F 32% 30.03 in 10.0 mi SW 4.6 mph - N/A   Clear
8:51 PM 71.1 °F 48.9 °F 45% 30.05 in 10.0 mi ENE 4.6 mph - N/A   Clear
9:51 PM 66.9 °F 46.9 °F 49% 30.04 in 10.0 mi NE 3.5 mph - N/A   Clear
10:51 PM 66.9 °F 48.9 °F 52% 30.01 in 10.0 mi NNE 6.9 mph - N/A   Clear
11:51 PM 66.0 °F 48.0 °F 52% 30.01 in 10.0 mi Calm Calm - N/A   Scattered Clouds